User: anonymous   Login
Location: Kuffner-Sternwarte
(48.2130°N, 16.2960°E)
Time: 03:16:37
(UTC+02:00)
Language:

COROT - Orbit

View from above orbital plane
View from above orbital plane
View from above satellite
View from above satellite

Ground track
Ground track

The orbit data is extracted from the following two-line orbital elements,

1 29678U 06063A   19290.69363702  .00000151  00000-0  29871-4 0  9992
2 29678  90.0446  18.7903 0203912 109.0363 253.3051 14.44308433663103
Epoch (UTC): 17 October 2019 16:38:50
Eccentricity: 0.0203912
inclination: 90.0446°
perigee height: 599 km
apogee height: 889 km
right ascension of ascending node: 18.7903°
argument of perigee: 109.0363°
revolutions per day: 14.44308433
mean anomaly at epoch: 253.3051°
orbit number at epoch: 66310

The dashed part of the orbit path shows where the satellite is in the earth's shadow,  

DLR